This demonstration page uses our WeatherBlox Daily Observations layout. Learn more.

Left ArrowRight Arrow

Hourly Observations for July 27, 2016

Temp ( °F °C ) Dew Point ( °F °C ) Humidity (%) Winds ( mph kmh ) Pressure ( in mb ) Visibility ( mi km ) Precip ( " mm )
12:51 am 00:51 Clear 86 30 59 15 40 40 NW 6 9 29.75 1007 10 16 0.00 0.00
1:51 am 01:51 Mostly Clear 86 30 57 13.9 37 37 WNW 3 6 29.75 1008 10 16 0.00 0.00
2:51 am 02:51 Clear 85 29.4 59 15 42 42 Calm 29.75 1008 10 16 0.00 0.00
3:51 am 03:51 Cloudy 83 28.3 60 15.6 46 46 Calm 29.79 1009 10 16 0.00 0.00
4:51 am 04:51 Clear 86 30 57 13.9 37 37 E 8 13 29.81 1010 10 16 0.00 0.00
5:51 am 05:51 Partly Cloudy 82 27.8 58 14.4 44 44 ESE 9 15 29.85 1011 10 16 0.00 0.00
6:51 am 06:51 Sunny 83 28.3 59 15 44 44 ESE 8 13 29.86 1011 10 16 0.00 0.00
7:51 am 07:51 Sunny 86 30 60 15.6 42 42 E 7 11 29.85 1011 10 16 0.00 0.00
8:51 am 08:51 Sunny 88 31.1 60 15.6 39 39 SE 10 17 29.85 1011 10 16 0.00 0.00
9:51 am 09:51 Sunny 91 32.8 59 15 34 34 Calm 29.84 1011 10 16 0.00 0.00
10:51 am 10:51 Sunny 94 34.4 58 14.4 30 30 Calm 29.82 1010 10 16 0.00 0.00
11:51 am 11:51 Sunny 96 35.6 58 14.4 28 28 W 10 17 29.80 1009 10 16 0.00 0.00
12:51 pm 12:51 Sunny 98 36.7 57 13.9 25 25 VRB 3 6 29.75 1008 10 16 0.00 0.00
1:51 pm 13:51 Sunny 99 37.2 56 13.3 24 24 Calm 29.71 1006 10 16 0.00 0.00
2:17 pm 14:17 Sunny with Nearby Thunderstorms 105 40.6 57 13.9 20 20 NW 13 20 29.59 1002 10 16 0.00 0.00
2:26 pm 14:26 Partly Cloudy with Nearby Thunderstorms 98 36.7 54 12.2 23 23 undefined N/A 29.62 1003 3 4 0.00 0.00
2:31 pm 14:31 Partly Cloudy with Thunderstorms 93 33.9 52 11.1 25 25 NNE 36 57 29.68 1005 1 2 0.00 0.00
2:38 pm 14:38 Mostly Cloudy with Thunderstorms 90 32.2 54 12.2 29 29 NNE 37 59 29.71 1006 4 6 0.00 0.00
2:51 pm 14:51 Mostly Cloudy with Thunderstorms 80 26.7 67 19.4 64 64 N 15 24 29.75 1008 8 13 0.02 0.51
2:56 pm 14:56 Partly Cloudy with Light Rain 81 27.2 64 17.8 57 57 N 12 19 29.71 1006 10 16 0.00 0.03
3:51 pm 15:51 Mostly Sunny 91 32.8 58 14.4 33 33 NE 21 33 29.72 1006 10 16 0.00 0.03
4:04 pm 16:04 Mostly Cloudy with Thunderstorms 86 30 62 16.7 45 45 ENE 15 24 29.68 1005 9 14 0.00 0.03
4:25 pm 16:25 Partly Cloudy 89 31.7 58 14.4 35 35 E 17 28 29.65 1004 10 16 0.00 0.03
4:51 pm 16:51 Sunny 90 32.2 60 15.6 37 37 ENE 10 17 29.69 1005 10 16 0.00 0.03
5:51 pm 17:51 Mostly Sunny 84 28.9 62 16.7 48 48 E 10 17 29.76 1008 10 16 0.00 0.00
6:10 pm 18:10 Partly Cloudy with Nearby Thunderstorms 87 30.6 58 14.4 37 37 E 22 35 29.71 1006 10 16 0.00 0.00
6:22 pm 18:22 Mostly Cloudy with Thunderstorms 86 30 58 14.4 39 39 E 16 26 29.71 1006 10 16 0.00 0.00
6:51 pm 18:51 Partly Cloudy with Thunderstorms 81 27.2 59 15 47 47 ESE 15 24 29.77 1008 10 16 0.00 0.00
7:04 pm 19:04 Mostly Sunny 85 29.4 55 12.8 36 36 ESE 7 11 29.74 1007 10 16 0.00 0.00
7:41 pm 19:41 Clear 84 28.9 58 14.4 41 41 SW 12 19 29.74 1007 10 16 0.00 0.00
7:51 pm 19:51 Mostly Clear 84 28.9 58 14.4 41 41 VRB 6 9 29.76 1008 10 16 0.00 0.00
8:51 pm 20:51 Clear 85 29.4 56 13.3 37 37 NE 14 22 29.77 1008 10 16 0.00 0.00
9:51 pm 21:51 Clear 80 26.7 60 15.6 51 51 SSW 8 13 29.80 1009 10 16 0.00 0.00
10:51 pm 22:51 Clear 78 25.6 62 16.7 58 58 N 3 6 29.82 1010 10 16 0.00 0.00
11:51 pm 23:51 Clear 78 25.6 62 16.7 58 58 E 5 7 29.82 1010 10 16 0.00 0.00

Powered by AerisWeather